This is the latest recevied weather packets stored in our database for station/object IZ6EGX-13. If no packets are shown the sender has not sent any weather packets the latest 1 day(s).
| Time | Temp. | Humidity | Pressure | Rain* | Wind** | Luminosity | Snow |
|---|---|---|---|---|---|---|---|
| 1778082391 | 19.44° C | 65% | 1011.3 hPa | 0 mm | - | - | - |
| 1778081791 | 19.44° C | 65% | 1011.2 hPa | 0 mm | - | - | - |
| 1778081191 | 19.44° C | 65% | 1011.3 hPa | 0 mm | - | - | - |
| 1778080591 | 20° C | 64% | 1011.3 hPa | 0 mm | - | - | - |
| 1778079991 | 20° C | 65% | 1011.4 hPa | 0 mm | - | - | - |
| 1778079391 | 19.44° C | 66% | 1011.2 hPa | 0 mm | - | - | - |
| 1778078791 | 19.44° C | 68% | 1011.4 hPa | 0 mm | - | - | - |
| 1778078191 | 19.44° C | 68% | 1011.4 hPa | 0 mm | - | - | - |
| 1778077591 | 19.44° C | 68% | 1011.3 hPa | 0 mm | - | - | - |
| 1778076991 | 19.44° C | 69% | 1011.3 hPa | 0 mm | - | - | - |
| 1778076391 | 19.44° C | 68% | 1011.3 hPa | 0 mm | - | - | - |
| 1778075791 | 20° C | 68% | 1011.4 hPa | 0 mm | - | - | - |
| 1778075191 | 20.56° C | 66% | 1011.5 hPa | 0 mm | - | - | - |
| 1778074591 | 20.56° C | 66% | 1011.6 hPa | 0 mm | - | - | - |
| 1778073991 | 21.11° C | 65% | 1011.6 hPa | 0 mm | - | - | - |
| 1778073391 | 20.56° C | 66% | 1011.6 hPa | 0 mm | - | - | - |
| 1778070390 | 20.56° C | 76% | 1011.8 hPa | 0 mm | - | - | - |
| 1778067390 | 18.33° C | 81% | 1012.4 hPa | 0 mm | - | - | - |
| 1778065590 | 20° C | 78% | 1012.1 hPa | 0 mm | - | - | - |
| 1778064990 | 20° C | 74% | 1012.1 hPa | 0 mm | - | - | - |
| 1778064390 | 20.56° C | 74% | 1012.1 hPa | 0 mm | - | - | - |
| 1778063790 | 20° C | 74% | 1012.3 hPa | 0 mm | - | - | - |
| 1778062590 | 20° C | 75% | 1012.3 hPa | 0 mm | - | - | - |
| 1778061990 | 20.56° C | 71% | 1012.3 hPa | 0 mm | - | - | - |
| 1778061390 | 18.89° C | 76% | 1012.7 hPa | 0 mm | - | - | - |
* Rain latest hour (hover to see other rain measurements)
** Current wind speed in m/s (hover to see current wind gust speed)